Regional Weather Roundup
Issued by NWS

Home | Current Version | Previous Version | Graphics & Text | Print | Product List | Glossary On
Versions: 1 2 3 4 5 6 7 8 9 10 11 12 13 14 15 16 17 18 19 20 21 22 23 24 25 26 27 28 29 30 31 32 33 34 35 36 37 38 39 40 41 42 43 44 45 46 47 48 49 50
000
ASUS43 KDMX 281303
RWRIA

WEATHER ROUNDUP FOR IOWA
NATIONAL WEATHER SERVICE DES MOINES IA
800 AM CDT THU APR 28 2016

NOTE: "FAIR" INDICATES FEW OR NO CLOUDS BELOW 12,000 FEET WITH NO
SIGNIFICANT WEATHER AND/OR OBSTRUCTIONS TO VISIBILITY.

* - THESE STATIONS ARE NOT NWS STATIONS...THUS NOT UNDER NWS
QUALITY CONTROL.  THEY ALSO DO NOT REPORT WEATHER SUCH
AS PRECIPITATION OR FOG.

IAZ001>003-012>014-020>022-031>034-043>046-281400-
   NORTHWEST IOWA

CITY           SKY/WX    TMP DP  RH WIND       PRES   REMARKS
CARROLL *      CLOUDY    46  46 100 SW8       29.74R
CHEROKEE *     LGT RAIN  41  41 100 NE12G17   29.81R
DENISON *      FOG       45  45 100 NW8       29.75R VSB 1
LE MARS *      CLOUDY    43  41  93 N10G17    29.85R
ORANGE CITY *  RAIN      39  39 100 NE10      29.84R WCI  32
SHELDON *      LGT RAIN  39  39 100 NE18      29.83R WCI  30
SIOUX CITY     CLOUDY    44  41  89 N14       29.84R FOG
SPENCER        LGT RAIN  39  36  89 NE16      29.83R FOG     WCI  30
STORM LAKE *   CLOUDY    41  41 100 NE16      29.78R
$$

IAZ055>058-069>071-079>083-090>094-281400-
   SOUTHWEST IOWA

CITY           SKY/WX    TMP DP  RH WIND       PRES   REMARKS
ATLANTIC *     CLOUDY    46  43  87 SW5       29.77R
AUDUBON *      PTSUNNY   46  43  87 W3        29.76R
CLARINDA *       N/A    N/A N/A N/A MISG        N/A
COUNCIL BLFS * CLOUDY    45  45 100 NW15      29.80R
CRESTON *      PTSUNNY   46  45  93 W8        29.78R
HARLAN  *      CLOUDY    46  45  93 NW15      29.80R FOG
LAMONI         CLOUDY    46  42  86 W12       29.78R
RED OAK *      PTSUNNY   48  45  87 NW9       29.80R
SHENANDOAH *   CLOUDY    50  48  93 W10       29.81R
$$

IAZ047>049-059>061-072>074-084-281400-
   CENTRAL IOWA

CITY           SKY/WX    TMP DP  RH WIND       PRES   REMARKS
AMES           CLOUDY    47  44  90 E3        29.76R
ANKENY *       CLOUDY    46  46 100 CALM      29.77R
BOONE *        CLOUDY    46  45  93 E3        29.75R
CHARITON *     CLOUDY    46  46 100 SW8       29.76R FOG
DES MOINES     CLOUDY    48  44  86 CALM      29.77R
GRINNELL*      DRIZZLE   48  48 100 E3        29.76R
KNOXVILLE *    CLOUDY    48  43  81 W7        29.75R
MARSHALLTOWN   CLOUDY    47  46  97 E12       29.76R FOG
NEWTON *       CLOUDY    46  46 100 N5        29.76R
PELLA *        PTSUNNY   48  43  81 W6        29.78R
$$

IAZ004>006-015-016-023>025-035-036-281400-
   NORTH CENTRAL IOWA

CITY           SKY/WX    TMP DP  RH WIND       PRES   REMARKS
ALGONA *       CLOUDY    41  39  93 E10G17    29.81R FOG
CLARION *      CLOUDY    43  43 100 E21       29.78R
ESTHERVILLE    LGT RAIN  37  36  96 NE15      29.83R FOG     WCI  28
FORT DODGE *   CLOUDY    45  39  81 E12       29.78R
MASON CITY     CLOUDY    41  38  89 E15       29.83R
FOREST CITY *  CLOUDY    39  37  93 E10       29.81R WCI  32
WEBSTER CITY * CLOUDY    45  45 100 E15       29.75R FOG
IOWA FALLS *   RAIN      45  43  93 NE9       29.79R
$$

IAZ007>011-017>019-026>030-037>042-050>054-066-281400-
   NORTHEAST IOWA

CITY           SKY/WX    TMP DP  RH WIND       PRES   REMARKS
CEDAR RAPIDS   CLOUDY    47  47 100 E12       29.77R FOG
CHARLES CITY * CLOUDY    41  41 100 E16       29.82R
CLINTON *      CLOUDY    47  45  93 E13       29.82R FOG
DECORAH *      CLOUDY    39  37  93 E9        29.84R WCI  33
DUBUQUE        CLOUDY    44  43  96 E13       29.82R FOG
MONTICELLO *   CLOUDY    46  45  93 E9        29.80R FOG
OELWEIN *      CLOUDY    43  43 100 E15       29.81R
WATERLOO       CLOUDY    45  41  86 E13       29.80R
$$

IAZ064-065-067-068-078-281400-
   EAST CENTRAL IOWA

CITY           SKY/WX    TMP DP  RH WIND       PRES   REMARKS
DAVENPORT      CLOUDY    47  45  93 E14       29.81R FOG
IOWA CITY      CLOUDY    49  48  97 NE7       29.79R FOG
MT. PLEASANT * CLOUDY    53  53 100 SW10      29.78R FOG
MUSCATINE *    CLOUDY    54  52  94 E5        29.78S FOG
QUAD CITIES    CLOUDY    50  47  89 E10       29.80R FOG
$$

IAZ062-063-075>077-085>089-095>099-281400-
   SOUTHEAST IOWA

CITY           SKY/WX    TMP DP  RH WIND       PRES   REMARKS
BURLINGTON     CLOUDY    51  51 100 SW7       29.77R
FAIRFIELD *    CLOUDY    50  48  93 SW5       29.77R
FORT MADISON * CLOUDY    52  52 100 S5        29.79R
KEOKUK *       PTSUNNY   52  52 100 SW8       29.78R FOG
OSKALOOSA *    CLOUDY    49  45  85 W7        29.77S
OTTUMWA        PTSUNNY   49  45  86 SW6       29.77R
WASHINGTON *   FOG       50  50 100 S6        29.79R VSB 1/2
$$

ABBREVIATIONS USED IN REMARKS
   TC - TEMPERATURES IN CELSIUS
  WCI - WIND CHILL INDEX
   HX - HEAT INDEX
  VSB - VISIBILITY
$$





USA.gov is the U.S. government's official web portal to all federal, state and local government web resources and services.